Tracking 26951 objects as of 4-Feb-2023
HD Live streaming from Space Station
objects crossing your sky now

NOAA 16 DEB

Track NOAA 16 DEB now!
10-day predictions


NORAD ID: 41278
Int'l Code: 2000-055GE
Perigee: 755.2 km
Apogee: 803.7 km
Inclination: 98.9 °
Period: 100.3 minutes
Semi major axis: 7150 km
RCS: Unknown
Launch date: September 21, 2000
Source: United States (US)
Launch site: AIR FORCE WESTERN TEST RANGE (AFWTR)

Note: This is SATELLITE DEBRIS
Your satellite tracking list
Your tracking list is empty




NASA's NSSDC Master Catalog

Two Line Element Set (TLE):
1 41278U 00055GE  23034.58380526  .00011809  00000-0  40599-2 0  9999
2 41278  98.8527 169.3666 0033933  57.3731 303.0721 14.35839429370393
Source of the keplerian elements: AFSPC